Content
SEND FEEDBACK

Daily
Averages
Monthly
Summary
United States of America

ASHEVILLE, NORTH CAROLINA


Home > North America > United States > North Carolina
Elevation: 682 meters     Latitude: 35 36N     Longitude: 082 32W

WEATHER
 
SELECT A DAY
Number of Records: 228,757;   Date Range: 1/1/95 - 9/30/14
 
SHARE

PRINT THIS DATA

[ ← Previous Day ]
WEATHER ALMANAC - 24 JUNE, 2013
[ Next Day → ]
[ °F ]   °C
We're sorry. There is no daily almanac available for Asheville, North Carolina on 24 June, 2013.
WEATHER BY HOUR - 24 JUNE, 2013
[ °F ]   °C
Local TimeTemperatureDewpointHumidityBarometerVisibilityWind DirectionWind SpeedGust SpeedPrecipitationEventsConditions
1:18 AM19 °C18 °C94 %1025.4 hPa16.1 kmCalmThunderstormScattered Clouds
1:33 AM19 °C18 °C94 %1025.4 hPa16.1 kmCalmMostly Cloudy
1:54 AM19.4 °C18.3 °C93 %1022.7 hPa16.1 kmCalmMostly Cloudy
2:54 AM18.9 °C17.8 °C93 %1022 hPa16.1 kmCalmScattered Clouds
3:31 AM19 °C18 °C94 %1024.4 hPa16.1 kmESE (120°)5.6 km/hMostly Cloudy
3:40 AM19 °C18 °C94 %1024.4 hPa16.1 kmSE (130°)5.6 km/hMostly Cloudy
3:54 AM18.9 °C18.3 °C96 %1021.7 hPa16.1 kmCalmOvercast
4:34 AM18 °C18 °C100 %1024.4 hPa16.1 kmCalmOvercast
4:54 AM18.9 °C18.3 °C96 %1021.7 hPa16.1 kmCalmOvercast
5:54 AM18.9 °C17.8 °C93 %1022.4 hPa16.1 kmCalmOvercast
6:34 AM19 °C18 °C94 %16.1 kmCalmOvercast
6:54 AM18.9 °C17.8 °C93 %16.1 kmCalmOvercast
7:54 AM18.9 °C17.8 °C93 %11.3 kmCalmOvercast
8:54 AM19.4 °C18.3 °C93 %1024 hPa12.9 kmCalmOvercast
9:31 AM21 °C18 °C83 %1026.1 hPa14.5 kmCalmOvercast
9:54 AM21.1 °C18.9 °C87 %1024 hPa14.5 kmCalmOvercast
10:31 AM22 °C19 °C83 %1026.1 hPa16.1 kmVariable5.6 km/hMostly Cloudy
10:54 AM22.2 °C18.9 °C81 %1024 hPa16.1 kmSouth (180°)5.6 km/hMostly Cloudy
11:54 AM25.6 °C19.4 °C68 %1023.4 hPa16.1 kmCalmClear
12:54 PM25.6 °C18.9 °C66 %1022.7 hPa16.1 kmCalm0 mmRainLight Rain
1:03 PM26 °C20 °C69 %1025.1 hPa16.1 kmWNW (300°)7.4 km/h0 mmScattered Clouds
1:54 PM24.4 °C17.2 °C64 %1022 hPa16.1 kmSouth (180°)11.1 km/h0 mmMostly Cloudy
2:54 PM25.6 °C20 °C71 %1020.7 hPa16.1 kmSSW (210°)5.6 km/h0 mmMostly Cloudy
3:54 PM27.2 °C20 °C65 %1020 hPa16.1 kmSSW (210°)7.4 km/hPartly Cloudy
4:54 PM27.8 °C20 °C62 %1019.6 hPa16.1 kmSouth (180°)16.7 km/hPartly Cloudy
5:54 PM27.2 °C17.8 °C56 %1019 hPa16.1 kmSouth (190°)14.8 km/hClear
6:54 PM26.7 °C17.8 °C58 %1019.6 hPa16.1 kmSouth (180°)20.4 km/hClear
7:54 PM25.6 °C19.4 °C68 %1020.3 hPa16.1 kmSouth (180°)13 km/hOvercast
8:22 PM25 °C19 °C69 %1022.7 hPa16.1 kmSSW (210°)13 km/hOvercast
8:54 PM23.9 °C19.4 °C76 %1020.7 hPa16.1 kmSSW (200°)11.1 km/h0 mmRainLight Rain
9:54 PM22.8 °C18.9 °C79 %1020.7 hPa16.1 kmSSE (160°)7.4 km/h0 mmRainLight Rain
10:54 PM21.7 °C18.9 °C84 %1021.3 hPa16.1 kmSSE (160°)5.6 km/h0 mmScattered Clouds
11:54 PM21.1 °C18.9 °C87 %1021 hPa16.1 kmCalmMostly Cloudy
Hourly data recorded from KAVL, located 0 kilometers away from Asheville, North Carolina







STORIES FROM OUR PARTNERS